Wind_Speed
18 16 12 8 9 10 8 4 3 4 5 5 3 1 0 1 2 4 5 7 11 13 15 16 19 21 22 22 23 23 23 23 23 24 25 24 20 18 18 17 15 14 13 14 14 13 12 12 12 11 11 11 11 11 11 9 8 8 7 6 6 6 5 4 3 1 1 1 2 3 4 4 3 4 5 6 5 5 6 5 7 8 6 5 5
18 16 13 10 10 11 8 5 3 4 5 5 3 2 1 2 4 5 6 8 11 14 15 16 19 19 20 21 22 22 22 22 22 22 23 21 19 19 18 16 15 14 13 13 12 12 11 10 11 11 11 11 11 11 11 10 9 9 8 7 7 7 6 4 3 2 2 2 2 3 4 3 3 4 5 6 5 4 4 4 5 7 6 5 5
18 15 14 12 11 10 8 5 4 5 5 5 5 3 2 2 5 7 7 9 12 16 18 18 19 19 19 20 21 21 21 21 20 20 20 20 20 19 18 16 15 14 13 13 12 11 10 10 10 11 11 11 11 12 12 10 9 8 8 8 8 8 6 4 3 2 2 3 4 4 4 3 3 4 5 6 5 5 5 5 6 7 6 6 5
17 15 13 12 12 11 9 5 5 6 5 6 5 3 3 3 4 7 8 10 13 16 19 20 20 20 20 20 21 21 21 21 21 20 19 19 19 18 16 15 15 14 13 12 11 10 9 9 9 10 10 10 10 11 11 9 8 9 9 9 8 7 6 5 4 4 4 5 6 5 4 3 4 4 3 5 6 6 7 6 6 7 7 6 6
18 16 13 11 12 11 9 6 6 6 6 6 5 5 5 4 4 7 9 11 13 16 18 21 22 21 21 21 21 21 20 20 20 19 18 17 16 15 15 14 14 14 13 11 10 8 8 8 8 9 10 10 10 10 10 10 9 9 9 9 8 7 7 7 6 6 6 7 7 5 4 3 4 4 3 5 5 5 6 6 6 8 7 6 6
19 16 13 11 12 11 10 8 7 7 7 6 7 6 7 7 5 7 10 11 13 16 18 20 22 21 20 19 19 18 17 17 17 16 16 16 15 15 14 14 13 13 12 10 9 8 7 7 7 8 8 9 9 9 9 9 10 10 9 9 8 8 8 8 8 7 6 7 6 4 3 4 4 3 2 4 4 4 6 6 5 7 7 6 6
19 16 15 13 13 12 11 8 7 8 7 7 7 7 8 8 7 7 9 11 13 15 17 18 19 19 19 17 17 16 15 16 16 16 16 16 15 14 14 13 12 11 11 9 8 8 7 7 7 7 7 8 8 7 7 7 8 9 9 9 9 10 9 9 9 8 7 7 5 4 4 5 5 3 3 4 4 4 5 6 6 6 5 5 5
18 17 17 15 14 12 10 8 7 8 9 8 7 8 9 9 9 8 9 10 12 15 16 17 17 18 18 19 18 17 16 16 16 17 17 16 14 13 12 12 12 11 10 9 8 8 8 7 7 7 7 6 6 6 6 6 6 7 7 8 9 9 9 9 9 9 8 7 5 5 5 5 4 4 4 5 4 3 4 5 6 5 5 5 5
20 18 17 15 13 12 11 9 9 9 10 9 8 8 9 10 11 11 10 10 12 13 15 15 16 17 18 19 19 19 18 16 16 15 15 14 13 12 11 12 11 11 10 10 9 9 8 8 7 7 6 5 5 5 5 5 5 5 6 7 8 9 9 9 9 9 8 7 6 5 5 5 4 4 4 4 4 3 4 4 4 4 5 5 5
23 19 17 16 14 13 12 11 11 10 10 10 10 10 10 11 12 12 12 11 12 13 14 15 15 16 17 18 18 18 17 16 16 15 14 13 12 12 11 12 12 11 11 10 10 9 8 8 7 6 5 5 4 4 4 5 5 5 6 6 7 8 8 8 9 9 9 7 6 6 5 5 4 4 5 5 5 5 5 4 2 3 5 5 5
25 20 16 17 17 15 14 13 13 11 11 12 12 12 11 12 12 13 14 13 13 14 15 15 15 15 17 17 17 17 16 15 15 14 13 13 12 12 12 12 12 12 11 10 10 9 8 7 7 6 5 5 5 5 4 5 5 5 5 5 6 6 7 8 9 8 8 8 7 6 6 6 5 6 7 7 6 6 6 5 4 3 4 5 6
26 21 16 17 18 18 17 16 14 13 13 13 14 14 13 12 13 14 15 15 15 16 16 16 16 15 16 16 16 15 14 14 14 13 13 12 12 12 12 12 12 12 11 10 10 8 7 7 6 6 5 5 5 5 5 5 5 5 5 6 7 7 7 8 8 8 8 9 8 7 6 7 6 6 7 7 7 7 7 7 6 5 5 6 7
27 23 20 19 20 20 20 19 17 15 14 13 14 16 15 14 14 14 15 16 16 16 17 17 16 16 16 15 15 15 14 14 14 14 13 13 12 11 11 11 11 11 10 9 9 8 7 7 6 6 5 5 6 5 4 4 4 5 6 6 7 7 8 8 8 8 8 9 9 7 6 7 7 7 7 7 7 7 7 7 6 5 5 5 6
28 26 25 24 23 22 20 20 19 17 16 15 14 16 16 15 15 15 15 15 16 17 17 18 17 16 16 16 15 15 14 14 14 14 14 14 12 11 11 11 11 10 9 9 9 8 7 7 7 7 6 6 6 6 5 5 5 6 6 5 5 6 7 7 7 7 8 8 8 6 5 6 6 6 7 7 7 8 7 6 5 5 5 4 4
30 28 28 28 26 23 22 22 21 19 18 17 15 16 17 17 15 16 16 16 16 16 17 18 18 18 17 16 15 16 15 14 15 15 15 14 12 12 12 12 11 11 10 10 9 8 8 8 7 7 7 7 7 7 6 5 5 6 6 5 4 4 5 6 6 7 7 7 7 6 5 5 5 6 7 7 7 7 6 4 4 5 3 3 3
32 31 31 31 28 25 24 24 23 22 20 19 17 16 17 17 16 16 17 17 16 16 15 16 18 18 18 16 16 16 16 15 15 15 14 13 13 13 12 12 12 12 11 11 10 9 8 8 8 7 7 7 7 7 7 7 6 6 6 5 5 5 5 5 6 6 7 6 6 5 5 5 5 6 7 7 7 6 4 3 4 4 3 2 3
33 33 33 33 32 29 27 25 24 23 22 20 18 17 17 17 17 17 17 18 17 16 15 15 17 17 18 17 16 16 16 15 15 14 13 14 13 13 13 13 13 13 12 11 10 10 9 8 8 8 7 8 8 8 8 7 8 7 7 7 6 6 6 6 6 6 6 6 6 5 5 5 6 6 6 7 6 6 4 4 4 4 4 3 2
32 35 36 37 35 32 30 26 24 23 22 21 19 18 18 18 18 17 17 18 18 17 17 16 16 16 16 17 16 16 15 15 14 14 13 14 14 13 13 13 13 13 12 11 10 10 10 9 8 8 8 8 8 8 8 8 8 8 8 8 7 7 7 7 7 8 7 7 6 5 5 5 6 6 6 7 6 5 5 5 5 6 6 6 4
29 34 37 38 38 37 33 28 26 25 23 22 21 20 20 19 19 19 18 18 18 18 18 18 16 15 15 16 16 16 15 15 15 15 14 14 14 14 13 13 12 12 12 12 11 10 10 10 10 9 9 9 9 8 8 8 9 9 8 8 8 8 8 8 8 8 8 8 7 5 5 5 6 7 7 7 7 6 6 5 7 7 6 7 6
25 30 34 36 37 39 36 32 30 28 26 26 24 22 21 20 19 20 19 19 19 19 19 19 18 16 16 15 16 16 16 16 16 16 16 15 15 15 14 14 13 13 12 12 11 11 10 10 10 9 9 9 9 9 9 9 9 9 9 9 9 9 8 8 8 9 9 9 8 7 7 7 7 8 9 9 8 8 7 6 7 6 6 6 7
20 25 29 32 35 37 36 34 31 30 29 29 27 25 26 25 23 22 22 20 20 20 20 20 19 18 17 17 16 17 17 17 17 17 17 16 16 16 15 15 14 13 13 12 12 11 10 10 9 9 9 9 9 9 9 9 9 10 9 10 10 9 9 9 9 10 10 10 10 9 8 8 9 9 10 10 10 9 8 6 6 6 5 5 6
17 21 24 29 34 35 34 33 31 31 30 29 29 28 28 26 24 25 25 24 22 21 19 19 20 20 19 18 18 18 18 18 18 18 17 17 16 16 16 15 15 14 13 13 12 12 12 11 11 10 10 10 10 10 10 10 10 11 11 11 11 10 10 11 11 11 11 12 12 10 9 9 10 10 11 11 11 10 8 6 6 7 7 7 7
15 19 21 25 30 31 32 32 29 31 32 29 29 29 27 25 23 22 24 25 24 23 21 21 20 21 21 20 20 20 20 20 19 19 18 17 17 16 16 16 15 14 14 13 13 13 14 14 13 13 12 12 12 11 11 11 11 11 12 12 12 11 11 12 12 12 13 13 13 12 11 11 11 12 11 11 11 11 9 8 8 8 8 9 9
12 15 18 22 25 26 31 33 31 32 34 32 29 28 27 26 24 23 23 24 24 23 22 23 22 21 22 22 22 22 21 21 21 20 19 18 18 18 17 16 15 15 15 15 15 15 15 14 13 12 12 13 12 12 11 11 11 12 12 12 12 13 14 15 14 14 14 14 14 14 13 12 12 13 12 11 13 13 12 11 12 11 10 11 10
12 13 16 19 20 21 27 34 35 35 34 32 30 27 26 26 25 24 24 23 23 22 21 23 24 23 23 24 23 23 23 23 22 21 20 19 19 19 18 17 16 16 16 16 16 16 14 13 12 11 11 11 11 11 11 12 13 14 14 14 14 16 17 17 17 17 16 16 15 14 14 13 13 14 14 15 16 15 14 13 14 14 14 13 11
12 12 14 17 18 18 23 32 37 37 34 32 32 31 29 27 25 25 24 24 24 22 22 24 26 26 25 26 26 25 25 24 23 22 21 21 21 20 19 19 18 18 17 17 17 16 15 14 12 12 11 10 10 11 11 13 15 15 15 15 16 18 18 17 19 19 17 16 15 15 15 15 14 14 16 17 17 17 17 16 16 16 16 15 15
12 11 11 13 16 18 20 28 36 39 36 34 34 35 34 30 26 25 25 25 25 23 22 24 27 28 28 27 27 26 25 24 23 23 22 22 23 22 21 20 20 19 18 18 18 17 16 14 13 12 11 11 12 13 14 15 15 14 14 15 16 17 17 17 20 19 16 15 15 15 15 15 15 15 15 16 17 18 17 17 17 17 16 16 16
11 11 10 11 13 16 19 24 32 38 36 34 35 36 35 31 28 27 26 25 25 24 24 25 27 29 29 27 25 24 24 24 23 23 23 22 22 22 21 20 20 20 19 19 18 16 16 14 13 12 12 12 13 14 15 15 14 13 13 13 13 14 14 17 20 19 16 16 15 15 15 15 15 15 15 15 16 16 17 16 16 16 15 14 15
12 11 10 10 11 13 17 21 27 33 35 36 36 35 34 33 32 31 29 27 26 26 27 25 26 29 30 27 24 23 23 24 24 24 23 21 20 19 19 18 18 18 18 19 18 17 16 15 14 14 14 14 14 14 15 15 13 12 12 11 12 12 13 16 19 18 16 16 16 15 16 16 16 16 15 14 14 15 16 15 15 15 14 14 15
12 11 10 11 11 11 14 18 23 28 33 36 37 36 36 36 36 35 33 31 28 27 27 26 25 29 30 27 26 24 22 22 23 23 22 20 19 19 20 19 18 18 18 19 20 19 17 16 16 16 16 16 16 16 16 15 14 13 12 12 12 13 14 16 17 17 16 15 15 15 16 17 17 17 16 15 15 15 15 14 14 15 15 16 16
13 12 10 10 9 9 11 14 19 23 28 31 33 36 39 38 38 39 38 34 31 29 29 27 26 28 29 28 25 22 21 20 21 22 22 20 20 21 21 20 20 20 19 20 20 20 18 17 17 18 18 18 18 18 17 16 15 15 14 14 13 13 14 15 15 15 15 15 14 14 15 16 17 17 16 16 16 16 16 15 15 15 15 16 17
10 9 7 6 6 7 8 11 16 20 23 26 29 32 37 40 40 40 40 38 34 32 30 28 26 27 26 26 23 21 21 22 21 21 22 20 20 21 21 20 20 20 20 20 20 20 19 18 18 19 19 19 19 19 20 20 19 18 17 16 16 15 14 14 14 14 14 14 14 14 15 15 16 17 17 17 17 17 16 16 16 15 15 16 17
8 7 5 3 2 3 4 6 10 15 18 22 25 26 31 40 42 39 39 40 36 33 30 28 28 27 24 23 24 23 23 23 23 23 23 22 21 21 20 20 20 21 22 22 23 23 22 22 22 22 21 20 20 20 21 22 23 22 20 19 19 18 16 15 14 14 14 14 14 14 15 15 16 16 16 16 16 16 16 16 16 15 15 15 16
6 5 4 1 3 3 1 2 5 7 6 8 12 15 23 35 39 35 34 36 34 33 31 30 30 28 25 22 23 23 23 24 24 24 23 23 22 21 21 21 22 22 23 25 25 25 25 25 26 26 25 24 24 23 23 22 23 24 24 23 23 22 20 18 17 16 16 15 14 15 15 15 15 16 15 15 15 14 14 15 16 16 16 16 18
6 7 4 3 6 7 5 3 1 3 4 3 5 11 21 29 33 32 30 29 28 28 27 25 24 23 21 20 19 20 22 24 24 24 24 23 23 23 24 25 25 25 25 26 27 28 28 28 29 29 28 28 27 27 26 25 24 24 24 25 25 24 23 21 20 19 18 17 16 16 16 16 16 16 16 16 16 16 16 16 17 18 19 19 19
9 9 6 3 5 8 7 4 2 3 2 2 4 10 17 22 26 29 29 26 24 22 18 16 18 20 19 18 17 18 20 22 24 25 24 24 24 25 26 27 27 27 27 27 28 28 29 30 30 30 31 31 30 29 29 29 27 26 25 25 26 25 25 24 23 23 22 21 20 18 18 17 18 18 19 19 19 19 18 18 19 20 21 21 21
10 10 5 1 3 5 6 4 4 5 6 6 4 5 11 15 18 20 22 24 24 22 18 18 20 21 19 18 17 16 18 20 22 23 23 24 25 26 27 27 28 28 28 28 29 31 32 32 32 31 31 31 31 31 31 30 30 29 27 27 26 27 27 27 26 25 25 23 22 20 18 18 19 20 21 21 21 21 21 21 21 21 21 22 22
6 6 4 1 1 2 5 5 4 3 4 6 7 5 7 9 12 13 15 19 20 20 20 21 21 19 17 17 17 16 17 18 19 20 21 23 23 24 26 27 27 28 29 30 31 33 33 32 32 32 32 32 31 31 31 31 32 32 30 28 27 27 28 28 27 26 24 23 23 21 19 19 20 21 21 22 22 22 22 22 22 20 20 21 22
5 5 4 3 2 0 3 3 3 1 1 3 4 5 6 6 8 10 12 15 18 19 20 20 19 18 17 17 17 16 16 17 17 18 20 21 22 22 23 24 24 26 27 28 30 31 30 31 32 31 31 32 31 31 31 32 33 34 33 31 29 27 27 27 27 26 24 23 23 21 20 20 21 21 21 22 23 23 23 23 22 21 20 21 21
6 5 3 2 1 0 2 2 2 3 2 2 4 6 7 8 8 9 10 9 11 14 16 17 18 18 18 17 17 17 17 17 18 18 19 20 21 22 23 23 22 23 24 25 26 26 25 27 28 27 28 28 28 28 29 30 31 33 34 33 30 27 26 27 27 26 24 23 22 22 22 22 22 22 22 22 22 22 23 23 23 23 22 22 22
8 6 4 2 3 4 4 5 5 5 3 1 2 3 5 7 8 9 10 11 12 11 11 13 15 16 16 16 16 17 18 19 19 19 19 19 20 20 21 21 20 21 22 22 23 23 24 25 24 23 22 21 21 23 24 24 26 30 32 32 30 28 27 27 27 26 25 23 22 23 23 24 24 23 23 23 23 23 23 24 24 24 24 24 24
11 10 7 6 7 8 9 10 10 9 5 2 2 3 4 4 5 7 8 12 14 15 15 13 12 14 17 17 17 17 18 18 18 17 17 17 16 16 17 17 17 18 18 18 20 22 21 20 21 21 20 18 17 19 21 21 21 23 25 27 29 28 26 26 27 27 26 25 25 26 27 29 29 28 28 28 28 27 27 27 28 28 27 28 28
10 11 10 10 10 10 10 10 10 9 6 2 3 5 6 7 8 9 9 10 11 13 15 14 13 14 15 15 14 13 14 13 12 11 12 12 11 11 11 12 14 15 15 14 15 15 13 12 17 20 20 18 18 19 19 18 18 19 19 20 22 22 23 24 25 25 26 26 26 25 28 31 33 33 32 32 31 30 30 31 32 32 32 32 31
5 7 8 8 9 9 8 8 6 5 5 4 5 6 7 8 10 11 12 13 13 13 14 15 14 14 13 12 11 11 11 10 9 9 9 8 7 7 8 10 12 13 14 12 11 12 14 14 14 17 18 17 17 19 19 18 17 18 18 18 19 20 21 22 23 23 23 24 24 22 22 24 24 24 26 27 27 28 30 31 32 34 35 36 35
6 6 7 7 7 7 6 5 4 4 4 6 7 7 7 8 10 11 13 14 14 14 14 14 13 12 11 11 10 10 9 8 7 6 5 4 4 5 6 8 9 10 10 9 7 10 12 11 11 13 14 12 11 13 15 16 14 14 15 17 19 19 19 20 21 21 22 23 22 21 20 20 20 19 20 21 22 24 24 25 25 27 30 32 30
10 8 8 8 7 6 6 5 6 6 6 7 9 8 7 8 10 11 12 12 12 13 12 12 11 11 10 9 7 7 6 6 5 4 3 2 3 3 3 4 4 4 4 4 4 5 6 6 6 8 7 4 4 5 8 10 9 8 9 13 15 16 17 18 19 19 19 19 17 16 16 17 18 18 18 19 20 20 20 20 20 19 19 20 20
10 9 8 8 9 8 7 7 7 9 9 9 10 9 9 10 12 12 12 12 12 11 11 11 10 10 9 8 7 5 5 4 4 4 3 2 2 2 2 2 2 2 2 2 2 2 2 3 3 3 2 1 1 2 3 4 4 3 4 6 8 10 11 12 13 14 14 13 10 9 10 11 12 12 13 14 16 17 18 19 19 17 15 15 15
11 11 9 10 10 9 9 9 10 12 12 12 12 12 12 13 13 14 13 12 12 11 10 10 10 9 9 9 7 6 6 5 4 5 4 3 3 3 4 4 3 2 1 1 1 2 1 2 1 1 0 1 1 1 1 1 1 1 0 1 2 3 4 5 6 7 8 7 7 8 8 9 8 8 8 10 12 12 13 13 12 12 12 12 11
11 11 11 12 13 12 12 12 13 14 15 15 15 14 14 14 13 13 13 12 11 11 10 10 10 9 9 9 8 7 7 6 5 5 5 5 4 4 4 4 3 3 2 2 2 2 1 1 1 0 1 2 2 2 2 2 2 1 1 1 2 3 4 4 4 5 6 7 8 9 8 8 7 6 6 7 8 8 8 8 9 9 10 11 11
11 11 12 15 16 15 15 14 15 16 16 15 15 15 14 14 13 13 13 12 11 11 10 10 10 9 8 8 8 7 7 6 6 6 5 5 4 4 3 3 2 1 1 0 0 0 1 1 1 1 1 1 1 2 2 2 2 2 1 1 2 2 3 3 4 4 5 6 7 8 8 8 7 6 6 6 7 8 8 9 9 9 10 11 11
13 12 14 17 18 17 15 15 15 15 15 14 14 14 13 13 13 12 12 11 11 10 9 9 9 8 7 8 7 6 6 5 4 4 4 4 3 3 3 2 2 1 1 1 1 1 2 2 2 2 2 2 2 2 2 2 2 3 3 3 2 2 3 3 3 4 5 6 7 8 8 8 8 8 8 9 9 10 10 11 12 12 12 12 13
Wind_Direction
222 228 242 243 211 214 228 222 186 156 165 196 223 238 194 97 100 109 113 118 131 143 147 150 155 156 154 155 158 160 163 163 165 168 171 172 172 173 175 176 173 172 179 181 178 175 177 180 185 188 187 190 189 184 187 196 202 208 209 209 214 212 203 196 197 228 298 346 7 335 330 340 330 311 313 320 328 360 1 349 355 351 338 346 350
215 225 238 244 225 217 229 234 193 159 167 188 211 207 171 147 126 122 129 125 128 138 142 146 148 150 151 152 154 157 159 159 159 163 168 171 172 174 176 176 172 173 178 180 178 177 180 185 188 191 193 193 190 188 193 197 203 214 221 223 229 229 220 214 232 267 282 307 327 315 310 307 300 293 304 321 327 360 356 318 337 346 339 358 358
211 220 234 243 233 224 233 233 192 177 173 182 206 195 163 175 142 132 138 136 132 135 139 144 146 147 149 150 151 153 156 159 161 164 167 171 174 175 174 173 172 176 179 180 180 180 184 191 192 194 196 195 192 196 202 202 204 217 227 230 234 236 232 233 253 269 268 279 280 285 291 290 323 313 309 337 349 359 348 307 314 329 328 338 339
208 215 229 240 235 229 234 232 201 196 185 180 197 189 172 184 159 141 140 143 140 137 140 145 147 148 149 150 151 153 157 160 164 166 168 172 174 173 172 172 174 178 179 180 182 178 182 192 197 197 197 201 203 206 213 214 212 220 227 231 236 239 237 236 241 246 252 264 265 282 308 322 355 348 337 3 8 360 351 329 314 321 321 314 316
204 213 223 233 238 239 241 236 212 205 197 182 182 181 176 182 175 151 146 152 151 146 146 148 151 152 153 155 157 159 161 162 164 165 166 170 172 171 170 173 177 179 178 179 179 176 182 192 198 198 198 205 211 217 223 223 221 226 229 228 234 242 244 243 242 244 253 262 269 294 328 337 356 9 18 14 9 355 354 350 318 313 323 319 315
202 211 223 242 249 246 243 234 212 205 201 187 180 181 179 181 184 162 153 159 159 157 156 155 157 157 156 157 158 160 161 161 163 164 166 168 170 172 173 176 178 179 180 181 180 181 188 196 200 200 204 211 216 220 225 226 228 232 232 228 227 235 241 246 248 251 260 269 280 296 309 332 356 18 32 17 11 349 343 349 326 309 315 319 317
203 207 221 243 251 246 240 228 209 205 204 197 185 184 186 182 182 176 164 163 165 163 162 161 161 160 158 157 158 160 159 161 164 167 169 171 172 174 175 177 178 180 184 186 187 192 199 204 206 207 215 221 223 226 224 224 233 238 240 236 230 235 240 245 252 257 262 273 285 289 300 332 353 4 7 8 9 347 333 339 335 312 301 306 314
209 209 216 232 244 249 247 232 218 210 207 206 194 189 195 188 180 182 177 169 168 168 166 164 161 159 159 159 160 162 162 165 168 170 171 173 175 175 176 179 180 184 189 191 194 201 208 212 213 216 223 226 225 232 231 226 236 242 244 244 242 247 247 244 250 256 262 275 288 298 310 319 335 351 350 355 4 349 338 342 337 314 296 301 305
215 215 216 224 239 253 255 246 233 217 208 209 202 193 198 196 185 182 186 179 172 172 171 170 166 162 162 164 164 165 167 169 171 173 172 171 174 176 179 182 184 189 192 194 198 202 208 213 214 218 222 222 222 230 237 236 241 244 245 250 254 257 256 251 251 253 259 271 285 296 300 295 314 340 334 344 360 356 353 348 339 326 315 314 308
216 219 219 221 234 253 258 254 245 225 210 209 207 199 198 201 193 183 186 187 180 178 177 176 174 170 171 172 170 171 173 172 172 174 171 170 174 176 179 183 186 192 194 195 199 201 203 207 210 213 212 212 219 228 234 234 236 244 252 254 253 251 250 252 253 256 261 268 276 280 280 285 304 317 316 328 342 351 356 351 341 327 317 318 320
215 219 223 223 229 243 253 254 249 235 218 210 208 205 199 200 199 189 185 187 188 187 184 184 185 181 181 182 179 179 179 176 175 174 173 173 177 176 178 182 187 192 193 193 197 199 200 202 207 208 202 204 215 218 218 223 229 239 247 245 244 243 243 249 254 258 263 263 267 269 274 293 307 313 315 314 319 335 344 346 344 317 311 320 320
216 218 223 225 224 230 242 248 247 241 231 216 206 207 204 199 201 197 189 187 191 195 193 192 193 191 191 190 189 188 185 181 179 177 178 181 181 182 183 184 189 193 193 193 195 197 197 199 203 203 196 200 212 214 210 214 222 229 233 231 233 238 242 248 251 253 256 259 264 268 277 293 302 306 307 301 305 318 325 337 343 325 323 326 313
217 222 224 228 225 223 233 243 246 245 240 224 205 206 209 202 200 202 196 191 193 198 200 199 198 197 197 197 198 198 193 188 185 182 185 189 189 190 189 187 192 196 195 196 197 195 194 196 203 208 203 204 214 219 211 209 218 225 230 230 231 237 238 240 245 250 253 257 264 271 278 286 292 296 296 295 300 307 314 327 336 321 317 319 304
216 222 228 234 230 223 228 240 246 247 245 235 213 205 209 205 199 201 200 197 196 198 202 204 203 200 202 204 203 205 202 195 192 191 191 194 194 192 190 190 194 196 197 199 198 195 193 198 207 211 211 210 213 218 215 212 220 226 230 231 233 234 229 228 237 246 251 259 269 276 278 281 288 291 289 291 296 303 311 317 323 317 302 297 295
217 222 228 233 232 226 226 233 241 245 244 241 225 208 208 207 201 200 202 202 200 199 203 207 207 205 206 209 207 208 207 200 198 199 197 196 197 194 193 194 195 196 198 198 197 197 197 200 208 212 213 213 211 214 216 216 219 225 229 235 240 235 226 227 236 245 252 259 265 270 275 278 280 282 284 289 293 301 310 310 322 329 307 286 302
220 222 224 226 228 228 226 227 233 239 241 241 230 211 206 210 207 200 202 206 204 202 203 206 210 209 208 211 210 209 208 203 201 204 203 200 200 198 197 197 196 198 201 199 196 202 203 200 203 209 214 216 214 214 217 218 221 224 227 233 238 238 235 236 240 245 249 250 251 253 261 267 269 275 283 291 293 296 302 305 319 333 322 294 304
218 218 218 221 223 224 225 225 226 231 237 237 230 214 205 209 210 203 201 205 207 206 203 204 208 210 209 209 210 208 207 206 204 205 206 205 204 202 200 198 197 200 204 204 201 203 208 206 205 209 215 217 218 218 221 225 227 228 230 233 236 237 238 239 241 245 247 248 246 244 245 253 262 272 283 289 290 291 296 304 315 322 324 331 325
217 213 214 218 221 222 224 224 220 223 232 237 233 221 210 207 211 210 204 204 208 208 205 204 205 208 208 207 207 207 206 206 207 208 208 208 206 205 203 200 199 201 205 208 207 205 207 211 213 215 216 218 219 222 226 230 231 231 231 234 237 239 240 242 244 245 247 252 253 251 251 255 259 267 277 280 282 289 296 308 319 318 322 337 340
224 216 212 213 217 221 223 224 221 218 225 236 238 230 217 207 209 214 210 206 209 212 210 207 204 204 205 205 204 204 205 206 207 209 209 207 205 204 204 204 204 207 211 213 213 211 208 211 218 222 220 219 221 225 229 233 235 234 233 235 238 240 243 246 248 250 253 256 258 257 251 249 255 266 274 275 277 286 294 306 318 319 321 333 338
236 227 221 218 219 220 219 222 225 220 218 227 235 232 223 213 211 216 215 209 208 211 212 212 209 204 202 202 202 201 202 204 205 207 207 206 205 204 204 206 209 212 216 218 219 220 216 211 216 224 229 230 229 230 232 235 237 238 239 241 244 246 247 247 250 255 258 258 257 254 251 249 255 264 271 273 277 284 291 302 315 316 316 325 331
251 237 231 228 228 225 219 217 222 221 217 222 227 228 225 218 210 210 213 212 211 211 212 212 212 210 205 202 202 200 200 201 203 205 205 205 206 206 206 208 210 211 214 217 218 221 224 221 219 222 225 230 236 239 241 241 241 244 245 246 248 250 251 250 250 253 256 257 254 252 253 256 260 266 272 277 280 284 291 301 306 301 298 305 309
265 251 241 236 235 231 220 212 216 219 218 222 226 228 230 228 218 212 210 209 209 210 212 214 214 213 211 206 204 203 203 203 204 205 205 206 207 207 207 208 209 210 212 214 213 214 220 222 223 224 224 225 230 237 242 243 243 246 248 247 246 246 247 249 252 255 257 257 257 257 257 258 260 263 267 271 275 279 285 286 282 278 279 280 277
274 262 254 247 245 241 225 210 209 217 220 223 228 230 234 236 233 227 222 216 211 208 208 213 216 215 214 211 207 207 207 208 209 208 208 209 208 207 208 209 208 212 215 217 219 219 222 224 222 222 226 230 232 235 240 245 247 248 250 254 255 253 252 250 248 251 256 260 262 264 261 258 258 259 262 270 276 277 278 276 269 266 271 275 273
291 272 259 254 254 251 235 216 205 212 220 223 227 231 235 238 236 234 233 228 223 218 209 207 213 216 215 214 212 210 210 212 213 212 210 211 210 209 211 212 213 217 220 221 225 227 232 238 235 228 230 237 241 243 245 250 252 251 253 260 263 264 264 260 253 247 248 254 259 260 261 263 269 274 277 282 282 278 279 283 282 277 272 268 268
301 281 262 256 256 252 241 227 212 210 217 222 225 230 236 239 236 234 234 230 230 232 222 209 207 212 214 215 215 214 213 214 214 214 213 212 212 213 215 217 219 222 225 227 229 232 235 242 245 243 244 249 251 253 253 252 251 250 253 256 256 257 260 259 256 251 245 248 254 259 264 271 276 279 280 278 277 274 273 274 274 273 271 267 266
298 284 266 257 256 250 239 231 223 218 217 219 224 231 235 237 235 233 233 233 233 236 234 221 209 206 209 212 213 213 213 214 214 214 214 214 214 216 219 221 223 226 230 231 231 232 230 231 237 242 248 253 253 253 254 254 254 257 262 261 255 254 255 253 252 252 250 252 257 262 266 270 270 268 270 271 273 274 273 269 266 268 269 267 266
289 283 266 251 254 252 238 227 224 223 221 219 222 229 233 234 234 233 231 233 234 235 238 234 221 211 208 209 210 212 212 212 213 214 215 215 215 216 217 220 223 224 229 232 233 234 232 229 228 232 238 243 247 248 249 250 252 260 270 268 257 251 251 250 250 252 253 254 256 259 262 266 268 267 270 274 277 278 276 273 273 277 275 268 267
279 273 261 245 246 249 241 229 224 224 224 224 225 227 230 232 235 237 234 232 233 232 234 239 235 224 214 207 207 211 213 212 212 213 215 217 219 219 218 220 222 222 226 231 234 238 243 242 236 233 238 243 249 253 255 255 256 263 272 270 259 251 251 252 253 255 257 259 261 262 263 265 267 268 272 275 276 277 275 273 276 280 279 270 268
273 264 255 246 239 238 237 233 230 228 228 229 230 230 231 235 238 238 235 232 231 230 231 236 237 229 219 209 205 210 214 215 213 214 216 218 222 225 223 224 226 224 228 233 236 236 240 245 246 246 249 252 255 257 257 257 255 257 264 266 262 259 258 259 261 263 264 265 266 267 266 267 267 269 271 269 267 267 269 272 275 275 272 269 268
271 264 253 245 239 235 232 230 230 232 232 234 236 236 236 238 239 238 235 231 229 228 231 236 238 230 221 212 207 207 213 218 218 220 219 216 219 224 226 228 231 232 234 239 244 245 244 245 250 254 256 257 259 258 255 252 250 250 255 258 261 262 260 260 263 264 265 266 268 267 267 267 267 269 271 268 264 264 266 269 271 267 265 266 267
273 266 255 245 240 237 236 235 235 235 236 237 239 241 240 238 238 236 232 227 226 227 229 232 234 228 220 217 213 208 209 215 220 225 225 220 218 225 230 232 235 240 243 245 251 256 256 254 255 258 260 262 263 262 256 253 255 257 255 251 253 258 259 259 259 260 264 268 271 271 268 265 264 264 266 266 267 268 268 266 267 266 261 261 264
271 260 253 250 247 245 245 248 248 247 247 245 243 247 248 242 237 235 230 226 226 225 223 222 224 221 217 217 217 212 210 212 215 223 229 227 225 228 233 237 239 244 249 251 255 258 260 260 260 262 264 266 267 265 260 257 258 260 258 254 252 253 255 257 258 261 264 268 270 272 271 268 265 263 264 266 268 270 267 264 266 267 261 256 259
264 244 242 245 248 262 262 264 266 265 263 252 246 252 253 242 236 236 233 229 225 221 215 214 217 215 210 210 211 211 213 212 211 218 227 232 234 237 241 245 246 248 249 252 255 257 259 261 262 263 265 266 267 267 264 261 259 259 261 260 259 258 256 256 256 257 259 262 265 269 270 269 267 264 263 266 269 271 268 262 262 264 263 260 261
251 209 208 165 84 66 20 337 297 276 261 241 233 234 233 230 231 235 232 226 223 219 211 206 206 206 204 205 208 210 214 214 215 218 225 232 239 244 249 252 252 252 251 252 254 257 260 262 263 264 264 264 265 265 265 264 261 260 261 262 261 260 257 256 254 253 255 258 261 263 264 265 265 264 265 267 270 271 270 265 260 260 260 261 263
227 174 157 110 84 76 64 41 317 226 188 165 188 200 207 216 226 233 230 223 219 217 210 203 202 205 205 209 215 220 222 221 220 222 228 236 242 247 251 255 257 258 256 255 255 257 260 262 263 264 264 263 263 262 263 264 264 262 261 260 259 257 255 255 254 252 250 250 250 252 255 259 262 265 266 266 267 266 266 265 263 260 259 259 260
213 177 158 108 94 87 68 56 91 124 123 134 188 195 197 206 217 223 222 215 206 204 203 200 204 210 214 223 232 233 228 225 226 230 237 244 248 250 253 256 257 257 256 254 254 256 258 261 262 263 264 263 261 261 261 261 262 262 260 258 256 254 252 252 251 249 246 244 244 246 250 256 261 263 264 264 263 262 262 263 264 263 262 261 260
202 182 175 97 105 97 66 66 116 113 88 82 105 181 199 208 213 214 213 208 199 196 199 201 205 210 218 229 236 233 230 232 237 243 248 251 252 253 254 254 255 255 253 253 254 256 258 259 260 261 261 260 259 258 257 257 258 259 258 257 254 251 250 249 248 246 247 249 251 250 249 252 256 258 260 261 260 259 260 262 263 262 261 260 261
206 194 211 255 135 78 52 70 123 149 125 107 108 139 175 200 214 214 212 209 201 196 199 205 212 216 218 224 228 230 233 239 243 248 253 254 253 252 252 254 255 255 254 254 256 257 258 258 259 259 259 259 258 257 256 254 253 254 253 252 252 250 248 248 247 246 248 252 255 253 249 250 252 253 256 259 259 260 260 261 262 260 259 259 260
234 235 237 236 212 46 29 51 74 73 189 178 182 180 169 186 213 209 203 207 207 205 206 211 215 215 214 216 220 225 230 235 238 242 246 249 249 248 249 251 253 256 257 257 258 259 261 261 261 260 260 259 258 257 254 250 249 249 248 247 247 247 246 246 246 246 248 251 253 253 250 249 249 250 252 256 259 262 263 262 261 260 261 261 260
239 248 238 233 216 209 6 8 10 358 315 238 228 213 201 205 204 178 158 168 191 203 209 211 211 212 214 217 221 225 230 234 237 240 243 244 245 248 249 251 255 258 259 260 261 262 261 259 257 256 255 255 255 254 253 252 252 252 249 244 242 242 243 242 242 244 246 248 251 252 251 249 248 248 250 253 258 262 264 264 262 262 262 261 259
230 225 211 261 306 318 316 299 299 314 322 287 250 218 203 204 194 169 152 150 156 168 182 193 199 204 206 212 220 225 229 232 234 236 241 244 246 249 252 255 258 258 259 262 263 263 260 255 253 255 254 251 250 249 249 253 257 257 254 248 243 239 238 238 241 246 248 249 250 251 249 247 246 247 250 254 258 260 263 264 265 264 263 262 261
219 219 223 255 282 287 286 282 285 293 298 262 188 160 152 157 155 153 162 170 176 182 185 187 195 204 208 215 222 225 230 235 234 233 235 240 244 248 251 255 256 256 261 263 261 262 261 248 240 247 253 249 246 246 246 249 254 253 251 250 247 241 237 240 246 252 254 256 256 256 255 254 252 252 256 259 259 259 260 262 264 264 264 265 265
209 220 232 247 255 259 265 271 275 279 275 240 153 138 139 141 138 136 141 154 168 177 180 183 189 197 207 216 221 223 230 238 239 238 237 235 234 236 242 247 250 251 257 262 262 265 264 238 225 235 244 244 244 246 245 248 252 248 242 244 247 245 243 246 251 254 257 260 261 261 263 264 260 258 259 260 258 258 258 260 262 264 264 265 265
181 212 220 230 238 242 248 251 244 236 225 186 147 134 133 136 141 143 144 148 153 157 164 174 180 183 191 199 202 206 215 221 225 233 237 235 233 238 246 253 257 258 261 264 260 254 255 252 245 242 242 244 248 247 244 247 256 253 240 234 237 243 246 249 252 255 259 264 266 266 271 274 269 263 260 257 256 257 260 263 264 265 264 264 265
134 180 190 195 212 220 223 219 191 169 162 142 126 120 122 130 136 139 141 145 151 154 159 165 170 174 181 187 188 191 194 195 199 209 215 224 235 245 251 255 261 265 266 263 253 244 249 258 257 248 245 249 255 249 239 241 253 255 239 229 232 241 248 251 255 259 263 267 270 271 273 276 276 272 267 263 261 263 266 269 271 270 266 263 262
135 158 167 164 173 179 175 168 148 127 115 111 110 113 120 127 128 130 133 137 141 146 151 154 158 161 162 161 162 163 161 161 162 165 168 181 202 214 224 233 244 256 263 259 241 233 238 241 243 250 258 264 258 242 232 236 247 249 234 228 234 245 253 257 261 263 264 265 269 272 274 277 279 277 273 271 271 270 272 275 278 277 271 266 264
149 152 147 143 149 154 153 149 135 118 108 105 109 116 123 126 125 126 128 130 132 135 139 140 142 143 140 136 136 134 127 121 121 125 126 125 129 136 141 149 172 199 225 240 216 203 207 208 220 246 275 261 225 221 220 230 244 244 232 234 242 252 262 267 266 261 258 258 263 273 285 294 295 291 287 285 282 280 279 279 277 274 272 271 272
164 156 143 139 146 144 138 135 128 121 118 116 118 121 121 123 127 128 128 129 131 133 136 135 134 133 131 131 132 128 120 116 116 114 112 111 109 103 101 96 89 99 124 151 157 146 131 133 145 157 110 37 26 4 262 275 304 332 321 276 262 267 279 284 273 257 249 249 258 272 288 304 311 310 305 298 291 288 285 281 278 278 278 275 272
172 157 142 146 151 143 135 135 133 129 127 124 123 123 121 123 126 128 129 133 135 135 135 133 131 131 131 130 129 127 126 125 125 121 117 114 111 106 106 105 98 91 88 89 101 109 114 121 118 46 353 354 356 359 4 4 3 355 315 251 247 257 264 266 263 254 250 252 259 267 278 293 304 310 308 298 290 287 283 280 282 285 284 281 278
170 147 134 144 150 143 139 143 141 135 132 129 127 127 127 129 130 130 133 136 135 134 135 134 133 133 133 128 126 126 126 124 122 121 118 114 113 119 123 125 125 124 110 25 22 19 358 355 358 351 352 347 344 350 357 352 342 331 318 297 285 289 287 281 278 270 265 266 268 270 273 278 284 289 289 284 281 280 280 280 280 280 278 279 282
176 154 141 145 148 147 148 149 144 138 137 134 133 135 136 136 136 137 139 140 138 137 139 139 139 140 138 133 131 129 128 127 126 125 127 129 135 141 146 153 172 196 223 253 274 288 305 315 316 315 309 301 299 299 300 301 304 305 306 309 313 314 316 320 318 310 302 294 286 284 282 278 276 274 272 272 275 281 287 288 287 285 283 283 284
Height
3185 3184 3187 3188 3188 3187 3188 3189 3189 3190 3191 3191 3190 3190 3190 3189 3189 3189 3189 3189 3189 3189 3190 3190 3192 3193 3194 3195 3197 3198 3200 3201 3202 3204 3206 3207 3209 3210 3211 3212 3213 3214 3216 3217 3217 3218 3219 3220 3221 3221 3222 3223 3223 3224 3224 3225 3225 3225 3226 3226 3227 3228 3228 3228 3228 3228 3228 3228 3228 3228 3228 3228 3227 3227 3226 3226 3225 3224 3223 3223 3222 3221 3219 3218 3217
3183 3184 3186 3187 3187 3187 3188 3188 3189 3190 3191 3191 3190 3190 3190 3190 3189 3190 3190 3190 3190 3190 3191 3192 3193 3195 3196 3197 3198 3200 3201 3202 3204 3205 3207 3208 3209 3210 3211 3212 3214 3215 3216 3217 3217 3218 3219 3220 3221 3221 3222 3223 3223 3224 3224 3225 3225 3225 3225 3226 3227 3227 3228 3228 3228 3228 3228 3228 3228 3228 3228 3227 3227 3227 3226 3226 3225 3224 3223 3223 3222 3221 3220 3218 3217
3182 3184 3185 3186 3187 3187 3187 3188 3189 3190 3191 3191 3191 3190 3190 3190 3190 3190 3191 3191 3191 3191 3192 3193 3195 3196 3197 3199 3200 3201 3203 3204 3205 3206 3207 3209 3210 3211 3211 3213 3214 3215 3217 3217 3218 3219 3219 3220 3221 3221 3222 3223 3223 3223 3224 3224 3225 3225 3226 3226 3227 3227 3228 3228 3228 3227 3227 3228 3228 3227 3227 3227 3227 3226 3226 3225 3225 3224 3223 3222 3221 3220 3219 3218 3217
3182 3183 3184 3185 3186 3187 3187 3188 3189 3190 3190 3191 3191 3190 3190 3191 3191 3191 3192 3192 3193 3193 3193 3194 3196 3197 3198 3200 3201 3202 3203 3204 3205 3207 3208 3209 3210 3211 3212 3213 3214 3216 3217 3218 3218 3219 3219 3220 3221 3221 3222 3223 3223 3223 3224 3224 3225 3225 3226 3226 3226 3227 3227 3227 3227 3227 3227 3228 3228 3227 3227 3227 3227 3226 3226 3225 3224 3223 3223 3222 3221 3220 3219 3218 3218
3181 3182 3183 3185 3186 3186 3187 3187 3188 3189 3190 3191 3191 3191 3191 3191 3192 3192 3192 3193 3194 3194 3194 3195 3196 3197 3198 3200 3201 3202 3203 3204 3205 3207 3208 3209 3210 3211 3212 3214 3215 3216 3217 3218 3218 3219 3220 3220 3221 3221 3222 3222 3223 3223 3224 3224 3225 3225 3225 3226 3226 3226 3226 3227 3227 3227 3227 3227 3227 3227 3227 3227 3226 3226 3225 3224 3223 3223 3222 3221 3221 3220 3219 3218 3218
3181 3182 3183 3184 3185 3185 3186 3187 3188 3189 3189 3190 3191 3191 3191 3191 3192 3192 3193 3194 3195 3195 3196 3196 3197 3198 3199 3200 3201 3203 3204 3205 3206 3207 3208 3210 3211 3212 3213 3214 3215 3216 3217 3218 3218 3219 3220 3220 3221 3221 3222 3222 3223 3223 3224 3224 3225 3225 3225 3226 3226 3226 3226 3226 3226 3227 3227 3226 3226 3226 3226 3226 3225 3225 3224 3224 3223 3222 3222 3221 3220 3220 3219 3218 3217
3180 3181 3183 3184 3184 3185 3186 3187 3188 3188 3189 3190 3190 3191 3191 3191 3192 3193 3193 3194 3195 3196 3197 3197 3198 3199 3200 3202 3203 3205 3206 3206 3207 3208 3209 3210 3211 3212 3213 3214 3215 3216 3217 3217 3218 3219 3220 3220 3221 3221 3222 3222 3223 3223 3224 3224 3224 3224 3225 3225 3225 3225 3226 3226 3226 3226 3226 3226 3226 3226 3226 3225 3225 3224 3223 3223 3222 3221 3221 3220 3220 3219 3219 3218 3217
3179 3180 3181 3183 3184 3185 3186 3187 3187 3188 3188 3189 3189 3190 3191 3191 3192 3193 3194 3194 3196 3197 3197 3198 3199 3200 3201 3203 3204 3205 3206 3207 3208 3209 3209 3210 3211 3212 3213 3214 3215 3216 3217 3217 3218 3219 3220 3220 3221 3221 3222 3222 3223 3223 3223 3224 3224 3224 3224 3225 3225 3225 3225 3225 3225 3225 3225 3225 3225 3225 3225 3224 3224 3223 3223 3222 3222 3221 3221 3220 3220 3219 3218 3218 3216
3178 3179 3180 3181 3183 3184 3185 3186 3186 3187 3188 3189 3189 3190 3191 3191 3191 3192 3194 3194 3195 3196 3198 3199 3199 3200 3201 3203 3204 3205 3206 3207 3208 3209 3209 3210 3211 3212 3213 3214 3215 3216 3216 3217 3218 3219 3219 3220 3220 3221 3222 3222 3223 3223 3223 3223 3223 3224 3224 3224 3224 3224 3224 3225 3225 3224 3224 3225 3225 3224 3224 3224 3224 3223 3222 3222 3222 3221 3221 3220 3219 3218 3218 3217 3217
3177 3178 3179 3180 3182 3183 3184 3185 3186 3186 3188 3188 3189 3189 3190 3191 3192 3192 3193 3194 3195 3196 3197 3198 3199 3200 3201 3202 3203 3204 3205 3206 3207 3208 3209 3209 3210 3212 3213 3214 3215 3215 3216 3217 3217 3218 3219 3219 3220 3220 3221 3221 3222 3222 3222 3223 3223 3223 3224 3224 3224 3224 3224 3224 3224 3224 3224 3224 3224 3224 3224 3224 3223 3223 3222 3222 3221 3221 3220 3220 3219 3218 3218 3217 3217
3176 3177 3178 3180 3181 3182 3183 3184 3185 3185 3186 3187 3188 3189 3189 3191 3192 3192 3193 3194 3195 3196 3197 3198 3199 3200 3201 3202 3203 3204 3205 3206 3207 3208 3208 3209 3210 3211 3213 3213 3214 3215 3216 3216 3217 3218 3218 3219 3219 3220 3220 3221 3221 3221 3222 3222 3222 3223 3223 3223 3223 3223 3223 3223 3223 3223 3223 3223 3223 3224 3223 3223 3223 3222 3222 3221 3221 3220 3220 3220 3219 3219 3218 3217 3216
3175 3176 3177 3178 3179 3180 3181 3182 3183 3184 3185 3186 3188 3188 3188 3190 3191 3192 3192 3193 3195 3196 3197 3198 3199 3200 3201 3202 3203 3204 3205 3206 3207 3207 3208 3209 3210 3211 3212 3213 3214 3215 3216 3216 3217 3217 3218 3218 3219 3219 3220 3220 3220 3221 3221 3221 3222 3222 3222 3222 3222 3222 3222 3223 3223 3223 3223 3222 3223 3223 3223 3222 3222 3222 3221 3221 3220 3220 3219 3219 3219 3218 3217 3216 3215
3174 3175 3176 3177 3178 3178 3179 3180 3182 3183 3183 3185 3187 3187 3187 3188 3190 3191 3192 3192 3194 3195 3196 3197 3198 3199 3200 3201 3202 3203 3204 3205 3206 3207 3208 3209 3210 3211 3212 3213 3214 3215 3215 3216 3217 3217 3218 3218 3219 3219 3219 3220 3220 3220 3221 3221 3221 3221 3221 3221 3221 3222 3222 3222 3222 3222 3222 3222 3222 3223 3222 3222 3221 3221 3221 3220 3220 3219 3219 3219 3218 3218 3217 3216 3215
3172 3174 3174 3175 3176 3176 3178 3179 3180 3181 3182 3183 3185 3186 3187 3187 3189 3190 3191 3192 3193 3194 3195 3196 3197 3199 3200 3201 3202 3203 3204 3205 3206 3207 3208 3209 3210 3211 3212 3212 3213 3214 3215 3216 3216 3217 3217 3218 3218 3219 3219 3219 3220 3220 3220 3221 3221 3221 3221 3221 3221 3221 3221 3221 3221 3222 3222 3222 3222 3222 3222 3221 3221 3221 3221 3220 3219 3218 3218 3218 3218 3217 3216 3215 3215
3170 3172 3172 3173 3174 3174 3175 3177 3178 3179 3180 3181 3183 3185 3186 3186 3187 3189 3190 3191 3192 3193 3194 3195 3196 3198 3199 3200 3201 3202 3204 3205 3206 3207 3208 3209 3210 3210 3211 3212 3213 3214 3214 3215 3216 3216 3217 3217 3218 3218 3219 3219 3220 3220 3220 3220 3220 3221 3220 3220 3220 3221 3221 3221 3221 3221 3221 3221 3221 3221 3221 3221 3221 3220 3220 3219 3218 3218 3218 3217 3217 3217 3216 3215 3215
3168 3170 3170 3170 3171 3172 3173 3174 3176 3177 3178 3179 3181 3184 3185 3186 3187 3188 3189 3190 3191 3192 3193 3195 3196 3197 3198 3199 3201 3202 3203 3204 3205 3206 3207 3208 3209 3210 3210 3211 3212 3213 3214 3215 3215 3216 3216 3217 3217 3217 3218 3218 3219 3219 3220 3220 3220 3220 3220 3220 3220 3220 3220 3220 3220 3220 3220 3220 3220 3220 3220 3220 3220 3219 3219 3218 3218 3218 3217 3217 3217 3216 3215 3215 3214
3164 3166 3168 3168 3168 3169 3170 3172 3173 3175 3176 3177 3180 3182 3184 3185 3185 3187 3188 3189 3190 3192 3193 3194 3195 3196 3197 3199 3200 3201 3203 3204 3205 3206 3207 3207 3208 3209 3210 3210 3211 3212 3213 3214 3214 3215 3216 3216 3216 3217 3217 3218 3218 3218 3219 3219 3219 3220 3220 3220 3220 3220 3220 3220 3220 3220 3220 3219 3219 3219 3219 3219 3219 3219 3218 3218 3217 3217 3217 3217 3216 3216 3215 3214 3214
3159 3160 3162 3164 3166 3166 3167 3169 3171 3173 3174 3175 3177 3180 3182 3184 3184 3186 3187 3188 3189 3191 3192 3193 3194 3195 3197 3198 3199 3200 3202 3203 3204 3205 3206 3206 3207 3208 3209 3210 3210 3211 3212 3213 3213 3214 3215 3215 3216 3216 3217 3217 3217 3217 3218 3218 3219 3219 3219 3219 3219 3219 3219 3219 3219 3219 3219 3219 3218 3219 3219 3218 3218 3218 3217 3217 3216 3216 3216 3216 3216 3215 3215 3214 3214
3157 3156 3155 3156 3160 3162 3164 3166 3169 3170 3172 3173 3175 3178 3180 3182 3183 3184 3186 3187 3189 3190 3191 3192 3193 3195 3196 3197 3198 3199 3201 3202 3203 3204 3204 3205 3206 3207 3208 3209 3209 3210 3211 3212 3213 3213 3214 3215 3215 3216 3216 3216 3217 3217 3217 3218 3218 3218 3218 3219 3219 3219 3219 3219 3218 3218 3218 3218 3218 3218 3218 3217 3217 3217 3216 3216 3215 3215 3215 3215 3215 3215 3214 3214 3214
3157 3158 3157 3155 3155 3156 3159 3163 3167 3169 3170 3170 3172 3175 3178 3180 3182 3183 3185 3186 3187 3189 3190 3192 3193 3194 3195 3196 3197 3198 3199 3200 3201 3202 3203 3204 3205 3206 3207 3208 3209 3210 3210 3211 3212 3212 3213 3214 3215 3215 3216 3216 3216 3216 3217 3217 3217 3218 3218 3218 3218 3218 3218 3218 3218 3217 3217 3217 3216 3216 3216 3216 3216 3216 3215 3215 3214 3214 3215 3215 3215 3214 3214 3214 3214
3155 3156 3158 3158 3156 3154 3156 3160 3164 3166 3167 3168 3170 3171 3173 3176 3178 3180 3182 3184 3186 3188 3189 3191 3192 3193 3194 3195 3197 3197 3198 3199 3200 3201 3202 3203 3204 3205 3206 3207 3208 3208 3209 3210 3211 3212 3212 3213 3213 3214 3215 3215 3215 3216 3216 3217 3217 3217 3217 3217 3217 3217 3217 3217 3217 3216 3216 3216 3215 3215 3215 3215 3215 3215 3214 3214 3213 3213 3214 3214 3214 3213 3213 3213 3212
3154 3154 3156 3156 3155 3155 3157 3158 3160 3163 3164 3165 3167 3169 3171 3174 3176 3177 3178 3181 3184 3187 3188 3190 3191 3192 3194 3195 3196 3197 3197 3198 3199 3200 3201 3202 3203 3204 3205 3206 3206 3207 3208 3209 3210 3210 3211 3211 3212 3213 3213 3214 3214 3215 3215 3215 3216 3216 3216 3216 3216 3216 3216 3216 3216 3216 3215 3215 3214 3214 3215 3215 3215 3214 3213 3212 3212 3211 3212 3212 3212 3212 3212 3212 3211
3152 3153 3153 3153 3153 3154 3157 3156 3155 3159 3162 3163 3165 3167 3170 3174 3177 3178 3179 3181 3183 3184 3186 3188 3190 3191 3193 3194 3195 3195 3196 3197 3198 3199 3200 3201 3202 3203 3204 3204 3205 3206 3206 3207 3208 3209 3209 3210 3211 3211 3211 3211 3212 3213 3213 3214 3215 3215 3215 3215 3215 3216 3215 3215 3214 3214 3214 3214 3213 3213 3214 3214 3213 3212 3212 3211 3211 3211 3210 3210 3210 3210 3210 3210 3210
3149 3149 3150 3150 3150 3151 3153 3153 3151 3153 3157 3159 3162 3165 3168 3171 3174 3177 3179 3181 3183 3184 3185 3185 3187 3190 3191 3192 3193 3194 3195 3196 3197 3198 3199 3200 3201 3202 3203 3203 3204 3204 3205 3206 3206 3207 3207 3209 3210 3210 3210 3210 3211 3211 3212 3213 3213 3214 3214 3215 3215 3216 3216 3215 3214 3213 3212 3212 3212 3212 3212 3213 3213 3212 3212 3211 3211 3211 3211 3210 3210 3210 3209 3209 3208
3146 3146 3145 3146 3146 3146 3148 3150 3150 3150 3152 3156 3159 3163 3165 3168 3171 3174 3177 3179 3181 3183 3184 3183 3184 3186 3189 3190 3192 3193 3194 3195 3196 3197 3198 3199 3200 3201 3201 3202 3202 3203 3203 3204 3205 3205 3206 3207 3208 3209 3209 3209 3210 3210 3211 3211 3211 3211 3212 3212 3213 3213 3213 3213 3213 3212 3211 3211 3211 3211 3211 3212 3212 3212 3211 3210 3210 3210 3209 3209 3209 3208 3208 3207 3206
3144 3143 3142 3142 3143 3144 3144 3147 3149 3150 3151 3154 3157 3161 3163 3165 3168 3171 3174 3176 3178 3180 3182 3182 3182 3183 3185 3187 3189 3190 3192 3193 3194 3195 3196 3197 3198 3199 3199 3200 3201 3201 3202 3202 3203 3203 3203 3204 3206 3207 3207 3207 3208 3208 3208 3208 3208 3208 3209 3210 3210 3210 3210 3211 3210 3211 3211 3210 3210 3211 3210 3210 3210 3210 3208 3207 3207 3206 3206 3206 3206 3205 3205 3205 3205
3141 3141 3141 3140 3140 3141 3142 3144 3147 3149 3150 3151 3155 3158 3160 3163 3166 3168 3171 3173 3175 3177 3179 3180 3182 3183 3183 3184 3187 3189 3190 3191 3193 3193 3194 3194 3195 3195 3196 3197 3198 3199 3199 3199 3200 3200 3201 3202 3204 3204 3205 3205 3205 3205 3206 3206 3205 3206 3206 3207 3207 3207 3208 3208 3207 3208 3209 3209 3209 3209 3208 3208 3208 3207 3206 3205 3204 3204 3204 3204 3204 3203 3203 3203 3202
3139 3139 3139 3139 3139 3139 3140 3142 3145 3147 3149 3151 3153 3155 3158 3160 3163 3166 3169 3170 3171 3172 3174 3177 3181 3183 3181 3181 3184 3188 3189 3190 3191 3191 3192 3192 3193 3194 3194 3195 3196 3196 3197 3197 3198 3199 3200 3201 3202 3202 3202 3203 3203 3203 3203 3203 3204 3204 3204 3204 3204 3204 3205 3205 3203 3205 3207 3207 3207 3207 3207 3206 3206 3205 3204 3204 3203 3203 3202 3202 3201 3201 3201 3201 3200
3137 3137 3137 3137 3138 3138 3139 3141 3143 3145 3147 3149 3150 3152 3154 3157 3160 3163 3165 3166 3166 3167 3170 3174 3178 3180 3180 3180 3182 3184 3187 3188 3189 3189 3190 3191 3193 3193 3194 3194 3194 3194 3195 3196 3196 3197 3198 3199 3200 3200 3200 3201 3201 3201 3201 3201 3202 3202 3202 3202 3202 3202 3203 3202 3201 3202 3204 3204 3204 3204 3204 3204 3204 3202 3202 3202 3201 3201 3200 3200 3199 3199 3199 3199 3199
3136 3135 3135 3135 3135 3136 3138 3139 3140 3142 3144 3145 3147 3149 3151 3154 3157 3159 3160 3162 3163 3164 3167 3171 3174 3177 3178 3178 3178 3181 3184 3186 3187 3187 3188 3190 3191 3191 3192 3192 3192 3193 3193 3194 3194 3195 3197 3197 3197 3198 3198 3199 3199 3199 3199 3199 3200 3200 3200 3200 3199 3200 3200 3200 3200 3201 3202 3202 3201 3201 3201 3201 3201 3200 3200 3199 3199 3198 3198 3198 3197 3197 3197 3197 3197
3134 3134 3133 3133 3133 3134 3135 3137 3138 3139 3140 3142 3144 3145 3147 3150 3153 3154 3154 3156 3159 3161 3164 3168 3171 3175 3176 3174 3175 3179 3182 3183 3184 3184 3186 3188 3189 3189 3189 3189 3190 3190 3191 3191 3192 3192 3194 3195 3195 3196 3196 3196 3197 3197 3197 3198 3198 3198 3198 3198 3198 3198 3199 3198 3198 3199 3199 3199 3199 3199 3198 3198 3198 3197 3197 3196 3196 3196 3196 3195 3195 3195 3195 3194 3194
3133 3132 3132 3132 3132 3132 3133 3134 3134 3135 3137 3139 3140 3141 3143 3146 3149 3149 3151 3153 3155 3158 3161 3164 3168 3172 3173 3171 3173 3177 3179 3180 3181 3182 3182 3183 3185 3186 3186 3187 3187 3187 3187 3188 3188 3189 3190 3192 3192 3193 3193 3193 3194 3195 3195 3196 3196 3196 3196 3196 3196 3196 3196 3196 3196 3196 3196 3196 3196 3196 3196 3196 3195 3195 3194 3194 3194 3194 3193 3193 3193 3193 3192 3192 3192
3132 3131 3131 3131 3131 3131 3131 3132 3131 3132 3132 3133 3135 3136 3138 3141 3144 3146 3149 3151 3152 3154 3158 3160 3163 3167 3169 3170 3172 3174 3176 3177 3178 3179 3178 3179 3181 3182 3183 3184 3185 3185 3185 3185 3185 3186 3187 3188 3189 3189 3190 3191 3192 3192 3193 3193 3194 3194 3194 3194 3194 3194 3194 3194 3194 3194 3194 3194 3194 3194 3194 3194 3193 3193 3192 3192 3192 3191 3191 3191 3190 3190 3190 3189 3189
3132 3131 3131 3131 3130 3130 3130 3130 3130 3130 3129 3128 3128 3130 3132 3135 3139 3143 3146 3148 3149 3151 3153 3155 3157 3161 3165 3167 3170 3172 3173 3175 3176 3176 3177 3178 3179 3180 3181 3181 3182 3182 3183 3183 3183 3183 3184 3185 3186 3186 3187 3188 3188 3189 3189 3190 3190 3191 3191 3191 3192 3192 3192 3192 3192 3192 3191 3191 3191 3191 3191 3191 3191 3191 3191 3190 3190 3189 3188 3188 3188 3187 3187 3187 3187
3133 3132 3131 3131 3131 3130 3130 3129 3130 3130 3129 3128 3128 3129 3130 3133 3136 3139 3142 3145 3148 3150 3152 3153 3155 3158 3162 3165 3167 3169 3171 3172 3173 3174 3175 3176 3177 3178 3178 3179 3179 3180 3180 3180 3180 3181 3181 3181 3182 3182 3184 3184 3185 3185 3186 3187 3187 3187 3187 3188 3188 3189 3189 3189 3189 3189 3189 3188 3187 3187 3188 3188 3188 3188 3188 3188 3187 3187 3186 3186 3185 3185 3185 3184 3184
3133 3133 3132 3131 3131 3131 3130 3130 3130 3130 3130 3130 3131 3132 3132 3133 3135 3136 3139 3142 3147 3150 3151 3152 3155 3157 3160 3162 3164 3166 3167 3168 3170 3171 3172 3173 3174 3175 3175 3175 3176 3176 3177 3177 3177 3177 3177 3177 3178 3179 3180 3180 3181 3182 3182 3183 3183 3183 3184 3184 3184 3185 3185 3186 3186 3186 3184 3183 3183 3183 3184 3185 3185 3185 3185 3185 3184 3184 3183 3183 3183 3182 3182 3182 3181
3133 3133 3132 3131 3131 3131 3131 3131 3131 3131 3131 3131 3132 3133 3134 3135 3136 3137 3139 3141 3145 3148 3150 3152 3154 3157 3159 3160 3161 3163 3164 3165 3166 3167 3168 3169 3170 3171 3171 3172 3172 3172 3173 3174 3173 3173 3173 3173 3173 3174 3175 3175 3176 3177 3178 3178 3179 3179 3180 3180 3180 3181 3181 3182 3182 3182 3181 3180 3180 3180 3181 3182 3182 3182 3182 3182 3181 3181 3181 3180 3180 3179 3179 3179 3179
3133 3133 3132 3132 3131 3131 3132 3132 3131 3131 3131 3132 3133 3133 3134 3135 3136 3137 3139 3141 3143 3146 3148 3151 3153 3155 3157 3158 3160 3161 3162 3163 3164 3164 3165 3166 3166 3167 3167 3167 3168 3168 3168 3169 3169 3168 3169 3169 3169 3170 3170 3170 3171 3172 3173 3174 3174 3174 3175 3175 3176 3177 3177 3178 3178 3179 3178 3178 3178 3178 3179 3179 3179 3179 3179 3178 3178 3178 3177 3177 3177 3177 3176 3176 3176
3132 3132 3131 3131 3131 3132 3132 3132 3132 3132 3132 3132 3132 3132 3133 3134 3135 3136 3137 3139 3141 3144 3147 3149 3151 3153 3155 3157 3158 3159 3160 3161 3161 3161 3162 3162 3162 3163 3163 3163 3163 3163 3164 3164 3164 3165 3166 3165 3164 3165 3165 3166 3166 3167 3167 3168 3169 3170 3170 3171 3171 3172 3173 3174 3175 3175 3176 3176 3175 3176 3176 3176 3176 3176 3176 3175 3175 3175 3174 3174 3174 3174 3174 3173 3173
3131 3131 3131 3131 3131 3132 3133 3133 3132 3132 3132 3132 3132 3132 3132 3133 3134 3135 3137 3138 3141 3143 3146 3148 3150 3152 3153 3155 3156 3156 3157 3158 3158 3159 3159 3159 3159 3159 3159 3159 3159 3159 3159 3160 3160 3161 3162 3160 3160 3160 3160 3160 3161 3162 3162 3163 3165 3166 3166 3166 3167 3167 3168 3170 3171 3171 3172 3173 3173 3173 3173 3173 3172 3172 3172 3172 3172 3172 3171 3171 3171 3170 3171 3170 3170
3131 3131 3131 3131 3131 3132 3132 3133 3133 3133 3133 3133 3133 3133 3132 3132 3133 3136 3138 3139 3140 3142 3143 3146 3148 3149 3150 3151 3152 3152 3153 3154 3155 3155 3155 3155 3155 3156 3156 3156 3156 3156 3156 3156 3157 3157 3157 3157 3157 3158 3157 3157 3158 3158 3159 3160 3161 3162 3162 3163 3164 3164 3165 3166 3167 3168 3169 3170 3170 3170 3169 3169 3169 3169 3169 3169 3169 3168 3168 3168 3167 3167 3167 3167 3167
3131 3132 3132 3132 3132 3132 3132 3133 3133 3133 3134 3134 3134 3134 3134 3134 3134 3135 3137 3138 3139 3139 3141 3144 3146 3147 3147 3148 3148 3148 3149 3150 3151 3151 3152 3153 3153 3153 3153 3153 3153 3153 3153 3153 3153 3153 3153 3154 3156 3157 3156 3155 3155 3155 3156 3157 3157 3158 3159 3159 3160 3161 3162 3163 3164 3165 3166 3167 3167 3166 3166 3166 3165 3165 3165 3165 3165 3165 3164 3164 3164 3164 3163 3163 3163
3131 3131 3132 3132 3132 3132 3132 3133 3133 3133 3134 3134 3134 3135 3135 3135 3135 3136 3137 3138 3138 3139 3141 3143 3144 3145 3146 3146 3147 3148 3148 3148 3149 3150 3151 3151 3151 3151 3151 3151 3151 3151 3151 3151 3150 3150 3150 3151 3153 3154 3154 3153 3153 3153 3154 3155 3155 3156 3156 3157 3158 3159 3161 3161 3162 3163 3163 3163 3163 3163 3163 3162 3160 3160 3160 3161 3161 3161 3160 3160 3160 3160 3159 3159 3158
3131 3131 3131 3132 3132 3132 3133 3133 3133 3133 3134 3134 3134 3135 3135 3135 3136 3137 3138 3139 3139 3140 3142 3143 3144 3145 3145 3146 3146 3147 3147 3147 3148 3148 3149 3149 3149 3148 3149 3149 3149 3149 3149 3149 3150 3149 3149 3149 3150 3150 3150 3151 3151 3151 3152 3153 3154 3154 3154 3155 3156 3157 3158 3159 3160 3160 3159 3159 3159 3159 3159 3158 3156 3156 3157 3157 3157 3157 3156 3156 3156 3155 3154 3154 3153
3131 3131 3131 3132 3132 3133 3133 3133 3133 3134 3134 3134 3134 3135 3135 3135 3136 3137 3138 3140 3141 3142 3143 3144 3144 3145 3145 3145 3145 3146 3146 3147 3147 3147 3147 3147 3147 3147 3147 3147 3147 3147 3147 3148 3149 3149 3149 3149 3149 3148 3149 3150 3150 3150 3150 3152 3153 3152 3152 3153 3154 3155 3156 3156 3157 3156 3156 3156 3156 3155 3155 3155 3154 3154 3154 3154 3153 3153 3153 3152 3152 3150 3149 3148 3148
3132 3132 3132 3132 3133 3133 3134 3134 3134 3134 3134 3135 3135 3135 3136 3136 3137 3137 3139 3140 3141 3142 3143 3144 3145 3145 3145 3145 3145 3145 3145 3146 3146 3146 3146 3146 3146 3146 3146 3146 3146 3146 3146 3147 3148 3148 3149 3149 3148 3148 3148 3148 3148 3148 3149 3150 3151 3151 3151 3152 3153 3153 3154 3154 3153 3153 3153 3153 3153 3153 3153 3153 3152 3152 3151 3150 3150 3150 3149 3149 3148 3147 3146 3145 3145
3133 3134 3134 3134 3134 3134 3135 3135 3135 3135 3136 3136 3137 3137 3138 3138 3139 3139 3140 3141 3142 3144 3144 3145 3145 3145 3145 3145 3145 3145 3145 3145 3145 3146 3146 3146 3146 3146 3146 3146 3146 3146 3147 3147 3148 3148 3148 3148 3148 3148 3147 3147 3147 3148 3148 3149 3149 3149 3150 3150 3151 3151 3151 3151 3151 3151 3150 3151 3151 3151 3151 3151 3150 3149 3148 3148 3147 3147 3146 3146 3146 3145 3144 3143 3143
3134 3134 3135 3136 3136 3136 3136 3137 3137 3137 3138 3138 3139 3139 3140 3140 3141 3141 3142 3143 3144 3145 3145 3145 3145 3145 3145 3145 3145 3145 3145 3145 3146 3146 3146 3146 3146 3146 3146 3147 3147 3147 3148 3148 3148 3148 3148 3148 3148 3148 3147 3147 3147 3147 3148 3148 3148 3148 3149 3149 3150 3150 3150 3150 3150 3149 3149 3150 3150 3150 3150 3149 3148 3148 3147 3147 3146 3145 3145 3144 3144 3143 3142 3142 3141
3134 3134 3135 3136 3137 3138 3138 3138 3138 3138 3139 3139 3140 3140 3141 3141 3142 3143 3144 3145 3145 3146 3146 3145 3145 3145 3145 3145 3146 3146 3146 3146 3146 3146 3146 3147 3147 3147 3147 3148 3148 3149 3149 3149 3149 3149 3149 3149 3148 3148 3148 3147 3147 3147 3147 3147 3148 3148 3148 3149 3149 3150 3150 3149 3149 3149 3149 3150 3150 3150 3149 3149 3148 3147 3147 3146 3145 3145 3144 3143 3143 3143 3142 3141 3141
3134 3134 3135 3136 3138 3138 3139 3139 3139 3139 3140 3140 3140 3141 3141 3142 3143 3144 3145 3146 3146 3146 3146 3146 3146 3146 3146 3146 3146 3147 3147 3147 3147 3147 3147 3148 3148 3148 3148 3149 3149 3149 3150 3150 3150 3150 3149 3149 3149 3148 3148 3148 3148 3148 3148 3148 3148 3148 3148 3149 3149 3149 3149 3149 3149 3149 3149 3149 3149 3148 3148 3147 3147 3147 3146 3146 3145 3144 3143 3143 3142 3142 3141 3140 3140
3135 3135 3135 3136 3137 3138 3139 3140 3140 3140 3141 3141 3141 3142 3142 3144 3145 3145 3146 3147 3147 3147 3147 3147 3147 3147 3147 3147 3147 3147 3147 3148 3148 3148 3148 3148 3149 3149 3149 3150 3150 3150 3150 3150 3150 3150 3150 3149 3149 3149 3149 3149 3149 3148 3148 3148 3148 3148 3148 3149 3149 3149 3149 3149 3149 3149 3149 3148 3148 3147 3147 3147 3146 3146 3146 3145 3144 3143 3142 3141 3141 3140 3140 3139 3138